This is the latest recevied weather packets stored in our database for station/object KE5WTH-14. If no packets are shown the sender has not sent any weather packets the latest 10 day(s).
| Time | Temp. | Humidity | Pressure | Rain* | Wind** | Luminosity | Snow |
|---|---|---|---|---|---|---|---|
| 1777390049 | 25° C | 88% | 1012.7 hPa | 0 mm | - | 93 W/m² | - |
| 1777389990 | 25° C | 88% | 1012.6 hPa | 0 mm | - | 72 W/m² | - |
| 1777389928 | 25° C | 88% | 1012.8 hPa | 0 mm | - | 81 W/m² | - |
| 1777389869 | 25° C | 88% | 1012.7 hPa | 0 mm | - | 83 W/m² | - |
| 1777389808 | 25° C | 88% | 1012.8 hPa | 0 mm | - | 76 W/m² | - |
| 1777389746 | 25° C | 88% | 1012.7 hPa | 0 mm | - | 69 W/m² | - |
| 1777389680 | 25° C | 88% | 1012.8 hPa | 0 mm | - | 65 W/m² | - |
| 1777389616 | 25° C | 88% | 1012.7 hPa | 0 mm | - | 51 W/m² | - |
| 1777389547 | 25° C | 88% | 1012.7 hPa | 0 mm | - | 42 W/m² | - |
| 1777389486 | 25° C | 88% | 1012.7 hPa | 0 mm | - | 42 W/m² | - |
| 1777389425 | 25° C | 88% | 1012.8 hPa | 0 mm | - | 41 W/m² | - |
| 1777389370 | 25° C | 88% | 1012.8 hPa | 0 mm | - | 39 W/m² | - |
| 1777389307 | 25° C | 88% | 1012.8 hPa | 0 mm | - | 33 W/m² | - |
| 1777389246 | 25° C | 88% | 1012.8 hPa | 0 mm | - | 32 W/m² | - |
| 1777389186 | 25° C | 88% | 1012.7 hPa | 0 mm | - | 26 W/m² | - |
| 1777389116 | 25° C | 88% | 1012.6 hPa | 0 mm | - | 26 W/m² | - |
| 1777389055 | 24.44° C | 88% | 1012.6 hPa | 0 mm | - | 28 W/m² | - |
| 1777388993 | 24.44° C | 88% | 1012.6 hPa | 0 mm | - | 32 W/m² | - |
| 1777388928 | 24.44° C | 88% | 1012.6 hPa | 0 mm | - | 32 W/m² | - |
| 1777388869 | 24.44° C | 88% | 1012.6 hPa | 0 mm | - | 30 W/m² | - |
| 1777388806 | 24.44° C | 88% | 1012.5 hPa | 0 mm | - | 30 W/m² | - |
| 1777388736 | 24.44° C | 88% | 1012.5 hPa | 0 mm | - | 32 W/m² | - |
| 1777388675 | 24.44° C | 88% | 1012.6 hPa | 0 mm | - | 26 W/m² | - |
| 1777388615 | 24.44° C | 88% | 1012.5 hPa | 0 mm | - | 21 W/m² | - |
| 1777388551 | 24.44° C | 88% | 1012.5 hPa | 0 mm | - | 25 W/m² | - |
* Rain latest hour (hover to see other rain measurements)
** Current wind speed in m/s (hover to see current wind gust speed)